Red Bluff, CA

9:00 AM PST on December 07, 2019 (GMT -0800)
Red Bluff Municipal

Weather History for KRBL - October, 2019

Change the Weather History Date:

Monday, October 7, 2019

  Actual Average Record
Temperature  
Mean Temperature 71 °F -  
Max Temperature 89 °F 83 °F 104 °F (1980)
Min Temperature 53 °F 53 °F 41 °F (1941)
Cooling Degree Days 6    
Growing Degree Days 21 (Base 50)    
Moisture  
Dew Point 36 °F    
Average Humidity 32    
Maximum Humidity 51    
Minimum Humidity 8    
Precipitation  
Precipitation 0.00 in - - ()
Sea Level Pressure  
Sea Level Pressure 29.95 in    
Wind  
Wind Speed 6 mph (NNW)    
Max Wind Speed 10 mph    
Max Gust Speed -    
Visibility 10 miles    
Events      
Averages and records for this station are not official NWS values.
T = Trace of Precipitation, MM = Missing Value Source: NWS Daily Summary

Daily Weather History Graph

Daily Weather History Graph

Search for Another Location

Airport or City:

Astronomy

Oct. 07, 2019 Rise Set
Actual Time 7:11 AM PDT 6:41 PM PDT
Civil Twilight 6:44 AM PDT 7:08 PM PDT
Nautical Twilight 6:12 AM PDT 7:40 PM PDT
Astronomical Twilight 5:41 AM PDT 8:11 PM PDT
Moon 4:07 PM PDT 1:08 AM PDT
Length of Visible Light 12h 24m
Length of Day
11h 30m
Waxing Gibbous, 70% of the Moon is Illuminated
Oct 7
Waxing Gibbous
Oct 13
Full
Oct 21
Last Quarter
Oct 27
New
Nov 4
First Quarter

Hourly Weather History & Observations

Time (PDT) Temp. Dew Point Humidity Pressure Visibility Wind Dir Wind Speed Gust Speed Precip Events Conditions
12:54 AM 55.9 °F 33.1 °F 42% 30.01 in 10.0 mi NW 3.5 mph - N/A   Clear
1:54 AM 57.0 °F 33.1 °F 40% 30.01 in 10.0 mi NNW 6.9 mph - N/A   Clear
2:54 AM 55.0 °F 32.0 °F 42% 30.00 in 10.0 mi NNW 6.9 mph - N/A   Clear
3:54 AM 51.1 °F 33.1 °F 50% 29.99 in 10.0 mi NW 6.9 mph - N/A   Clear
4:54 AM 54.0 °F 33.1 °F 45% 29.99 in 10.0 mi NNW 6.9 mph - N/A   Clear
5:54 AM 55.9 °F 33.1 °F 42% 29.99 in 10.0 mi NNW 10.4 mph - N/A   Clear
6:54 AM 53.1 °F 32.0 °F 45% 30.01 in 10.0 mi NNW 9.2 mph - N/A   Clear
7:54 AM 54.0 °F 33.1 °F 45% 30.01 in 10.0 mi NW 6.9 mph - N/A   Clear
8:54 AM 63.0 °F 36.0 °F 37% 30.02 in 10.0 mi North 6.9 mph - N/A   Clear
9:54 AM 70.0 °F 37.9 °F 31% 30.01 in 10.0 mi North 9.2 mph - N/A   Clear
10:54 AM 75.9 °F 37.9 °F 25% 30.01 in 10.0 mi North 5.8 mph - N/A   Clear
11:54 AM 80.1 °F 37.9 °F 22% 29.99 in 10.0 mi Calm Calm - N/A   Clear
12:54 PM 82.0 °F 37.0 °F 20% 29.97 in 10.0 mi Calm Calm - N/A   Clear
1:54 PM 87.1 °F 37.0 °F 17% 29.94 in 10.0 mi North - - N/A   Clear
2:54 PM 88.0 °F 35.1 °F 15% 29.91 in 10.0 mi Variable 4.6 mph - N/A   Clear
3:54 PM 88.0 °F 37.9 °F 17% 29.90 in 10.0 mi SE 6.9 mph - N/A   Clear
4:54 PM 88.0 °F 36.0 °F 16% 29.88 in 10.0 mi South 8.1 mph - N/A   Clear
5:54 PM 87.1 °F 37.0 °F 17% 29.87 in 10.0 mi SSE 4.6 mph - N/A   Clear
6:54 PM 79.0 °F 44.1 °F 29% 29.86 in 10.0 mi ESE 3.5 mph - N/A   Clear
7:54 PM 71.1 °F 44.1 °F 38% 29.88 in 10.0 mi Calm Calm - N/A   Clear
9:54 PM 60.1 °F 39.9 °F 47% 29.89 in 10.0 mi WNW 3.5 mph - N/A   Clear
10:54 PM 60.1 °F 39.0 °F 46% 29.90 in 10.0 mi NW 4.6 mph - N/A   Clear
11:54 PM 57.0 °F 39.0 °F 51% 29.90 in 10.0 mi NW 3.5 mph - N/A   Clear